• In Uzbekistan
  • List of Countries
  • For 7 days
  • Water Temperature
  • Satellite Maps
  • Weather Map
  • Weather Widgets
  • user-avatar
    Login

    Hourly Weather Ocozocuautla

    Today, 17 October, Wednesday

    Time Temperature Precipitation Wind Pressure Humidity
    00:00 +20°C° 0.4 mm 2 mps 676 mmHg 96%
    01:00 +21°C° 1.1 mm 1 mps 676 mmHg 97%
    02:00 +21°C° 1.1 mm 1 mps 676 mmHg 97%
    03:00 +21°C° 1.1 mm 1 mps 676 mmHg 97%
    04:00 +21°C° 2.4 mm 1 mps 676 mmHg 97%
    05:00 +21°C° 2.4 mm 1 mps 676 mmHg 98%
    06:00 +21°C° 2.4 mm 1 mps 676 mmHg 98%
    07:00 +21°C° 1.8 mm 1 mps 676 mmHg 97%
    08:00 +21°C° 1.8 mm 1 mps 676 mmHg 96%
    09:00 +22°C° 1.8 mm 1 mps 677 mmHg 96%
    10:00 +22°C° 1.5 mm 1 mps 677 mmHg 95%
    11:00 +23°C° 1.5 mm 1 mps 677 mmHg 94%
    12:00 +23°C° 1.5 mm 1 mps 677 mmHg 93%
    13:00 +23°C° 1.4 mm 2 mps 676 mmHg 93%
    14:00 +23°C° 1.4 mm 2 mps 676 mmHg 92%
    15:00 +24°C° 1.4 mm 2 mps 676 mmHg 92%
    16:00 +23°C° 1 mm 2 mps 676 mmHg 94%
    17:00 +22°C° 1 mm 1 mps 676 mmHg 95%
    18:00 +22°C° 1 mm 1 mps 676 mmHg 97%
    19:00 +21°C° 0.9 mm 1 mps 676 mmHg 97%
    20:00 +21°C° 0.9 mm 1 mps 677 mmHg 97%
    21:00 +20°C° 0.9 mm 2 mps 677 mmHg 97%
    22:00 +20°C° 0.3 mm 2 mps 677 mmHg 97%
    23:00 +20°C° 0.3 mm 2 mps 677 mmHg 97%

    Tomorrow, 18 October, Thursday

    Time Temperature Precipitation Wind Pressure Humidity
    00:00 +20°C° 0.3 mm 2 mps 677 mmHg 97%
    01:00 +20°C° 0.1 mm 1 mps 677 mmHg 97%
    02:00 +20°C° 0.1 mm 1 mps 676 mmHg 97%
    03:00 +20°C° 0.1 mm 1 mps 676 mmHg 97%
    04:00 +20°C° 0.1 mm 1 mps 676 mmHg 97%
    05:00 +20°C° 0.1 mm 1 mps 676 mmHg 97%
    06:00 +20°C° 0.1 mm 1 mps 676 mmHg 96%
    07:00 +20°C° 0.1 mm 2 mps 677 mmHg 94%
    08:00 +21°C° 0 mm 2 mps 677 mmHg 92%
    09:00 +21°C° 0.1 mm 2 mps 678 mmHg 90%
    10:00 +23°C° 0.1 mm 2 mps 678 mmHg 87%
    11:00 +24°C° 0.1 mm 2 mps 678 mmHg 84%
    12:00 +24°C° 0.1 mm 2 mps 678 mmHg 81%
    13:00 +24°C° 0.4 mm 2 mps 677 mmHg 83%
    14:00 +24°C° 0.4 mm 2 mps 677 mmHg 85%
    15:00 +24°C° 0.4 mm 3 mps 676 mmHg 87%
    16:00 +23°C° 0.7 mm 2 mps 676 mmHg 90%
    17:00 +21°C° 0.7 mm 2 mps 676 mmHg 93%
    18:00 +20°C° 0.7 mm 2 mps 676 mmHg 96%
    19:00 +20°C° 0.6 mm 2 mps 677 mmHg 96%
    20:00 +21°C° 0.6 mm 1 mps 678 mmHg 97%
    21:00 +21°C° 0.6 mm 1 mps 678 mmHg 97%
    22:00 +21°C° 0.3 mm 1 mps 678 mmHg 97%
    23:00 +21°C° 0.3 mm 1 mps 678 mmHg 97%

    Day after tomorrow, 19 October, Friday

    Time Temperature Precipitation Wind Pressure Humidity
    00:00 +20°C° 0.3 mm 1 mps 678 mmHg 97%
    01:00 +20°C° 0.2 mm 1 mps 678 mmHg 97%
    02:00 +20°C° 0.2 mm 1 mps 677 mmHg 97%
    03:00 +20°C° 0.2 mm 1 mps 677 mmHg 97%
    04:00 +20°C° 0.1 mm 1 mps 677 mmHg 97%
    05:00 +18°C° 0.1 mm 0 mps 677 mmHg 97%
    06:00 +18°C° 0.1 mm 0 mps 677 mmHg 97%
    07:00 +21°C° 0 mm 1 mps 678 mmHg 94%
    08:00 +22°C° 0 mm 1 mps 679 mmHg 91%
    09:00 +23°C° 0 mm 1 mps 679 mmHg 88%
    10:00 +24°C° 0.2 mm 1 mps 679 mmHg 85%
    11:00 +25°C° 0.2 mm 1 mps 679 mmHg 81%
    12:00 +26°C° 0.2 mm 1 mps 679 mmHg 78%
    13:00 +25°C° 1 mm 1 mps 678 mmHg 81%
    14:00 +25°C° 1 mm 1 mps 677 mmHg 85%
    15:00 +24°C° 1 mm 1 mps 677 mmHg 89%
    16:00 +23°C° 1.1 mm 1 mps 677 mmHg 91%
    17:00 +22°C° 1.1 mm 1 mps 677 mmHg 94%
    18:00 +21°C° 1.1 mm 1 mps 677 mmHg 96%
    19:00 +21°C° 1.3 mm 1 mps 677 mmHg 97%
    20:00 +21°C° 1.3 mm 1 mps 678 mmHg 97%
    21:00 +20°C° 1.3 mm 1 mps 678 mmHg 97%
    22:00 +20°C° 1.1 mm 1 mps 678 mmHg 97%
    23:00 +18°C° 1.1 mm 0 mps 678 mmHg 97%

    20 October, Saturday

    Time Temperature Precipitation Wind Pressure Humidity
    00:00 +18°C° 1.1 mm 0 mps 678 mmHg 97%
    01:00 +18°C° 0.3 mm 0 mps 677 mmHg 97%
    02:00 +18°C° 0.3 mm 0 mps 677 mmHg 97%
    03:00 +20°C° 0.3 mm 1 mps 676 mmHg 97%
    04:00 +18°C° 0.1 mm 0 mps 677 mmHg 97%
    05:00 +18°C° 0.1 mm 0 mps 677 mmHg 97%
    06:00 +18°C° 0.1 mm 0 mps 677 mmHg 97%
    07:00 +19°C° 0 mm 0 mps 678 mmHg 95%
    08:00 +22°C° 0 mm 1 mps 678 mmHg 92%
    09:00 +23°C° 0 mm 1 mps 679 mmHg 89%
    10:00 +24°C° 0.1 mm 1 mps 679 mmHg 84%
    11:00 +25°C° 0.1 mm 1 mps 679 mmHg 80%
    12:00 +26°C° 0.1 mm 2 mps 678 mmHg 75%
    13:00 +26°C° 0.4 mm 2 mps 678 mmHg 77%
    14:00 +26°C° 0.4 mm 2 mps 677 mmHg 78%
    15:00 +26°C° 0.4 mm 2 mps 676 mmHg 80%
    16:00 +24°C° 0.8 mm 2 mps 676 mmHg 85%
    17:00 +23°C° 0.8 mm 2 mps 677 mmHg 90%
    18:00 +21°C° 0.8 mm 2 mps 677 mmHg 95%
    19:00 +20°C° 0.8 mm 2 mps 677 mmHg 96%
    20:00 +20°C° 0.8 mm 2 mps 678 mmHg 96%
    21:00 +20°C° 0.8 mm 2 mps 678 mmHg 97%
    22:00 +21°C° 0.3 mm 1 mps 678 mmHg 97%
    23:00 +21°C° 0.3 mm 1 mps 678 mmHg 97%

    21 October, Sunday

    Time Temperature Precipitation Wind Pressure Humidity
    00:00 +21°C° 0.3 mm 1 mps 678 mmHg 96%
    01:00 +21°C° 0.2 mm 1 mps 677 mmHg 97%
    02:00 +20°C° 0.2 mm 1 mps 677 mmHg 97%
    03:00 +20°C° 0.2 mm 1 mps 677 mmHg 97%
    04:00 +20°C° 0.2 mm 1 mps 677 mmHg 97%
    05:00 +20°C° 0.2 mm 1 mps 677 mmHg 97%
    06:00 +20°C° 0.2 mm 1 mps 677 mmHg 97%
    07:00 +21°C° 0.1 mm 1 mps 678 mmHg 95%
    08:00 +21°C° 0.1 mm 1 mps 678 mmHg 94%
    09:00 +22°C° 0.1 mm 1 mps 679 mmHg 92%
    10:00 +23°C° 0.1 mm 2 mps 679 mmHg 88%
    11:00 +24°C° 0.1 mm 2 mps 678 mmHg 84%
    12:00 +25°C° 0.1 mm 2 mps 678 mmHg 80%
    13:00 +25°C° 0.4 mm 2 mps 678 mmHg 81%
    14:00 +25°C° 0.4 mm 2 mps 677 mmHg 81%
    15:00 +25°C° 0.4 mm 2 mps 676 mmHg 82%
    16:00 +24°C° 0.4 mm 2 mps 676 mmHg 86%
    17:00 +23°C° 0.4 mm 2 mps 677 mmHg 90%
    18:00 +21°C° 0.4 mm 2 mps 677 mmHg 95%
    19:00 +20°C° 0.2 mm 2 mps 677 mmHg 95%
    20:00 +21°C° 0.2 mm 1 mps 678 mmHg 96%
    21:00 +21°C° 0.2 mm 1 mps 678 mmHg 96%
    22:00 +20°C° 0.1 mm 1 mps 678 mmHg 96%
    23:00 +20°C° 0.1 mm 1 mps 678 mmHg 97%

    22 October, Monday

    Time Temperature Precipitation Wind Pressure Humidity
    00:00 +20°C° 0.1 mm 1 mps 678 mmHg 97%
    01:00 +20°C° 0 mm 1 mps 677 mmHg 97%
    02:00 +20°C° 0 mm 1 mps 677 mmHg 96%
    03:00 +19°C° 0 mm 1 mps 677 mmHg 96%
    04:00 +19°C° 0 mm 1 mps 677 mmHg 96%
    05:00 +19°C° 0 mm 1 mps 677 mmHg 96%
    06:00 +19°C° 0 mm 1 mps 677 mmHg 96%
    07:00 +20°C° 0 mm 1 mps 678 mmHg 92%
    08:00 +22°C° 0 mm 1 mps 679 mmHg 88%
    09:00 +23°C° 0 mm 1 mps 679 mmHg 84%
    10:00 +24°C° 0.1 mm 1 mps 679 mmHg 81%
    11:00 +25°C° 0.1 mm 2 mps 679 mmHg 77%
    12:00 +26°C° 0.1 mm 2 mps 678 mmHg 73%
    13:00 +26°C° 0.1 mm 2 mps 678 mmHg 74%
    14:00 +26°C° 0.1 mm 2 mps 677 mmHg 74%
    15:00 +26°C° 0.1 mm 2 mps 677 mmHg 75%
    16:00 +24°C° 0.2 mm 2 mps 677 mmHg 81%
    17:00 +23°C° 0.2 mm 2 mps 677 mmHg 88%
    18:00 +21°C° 0.2 mm 2 mps 677 mmHg 94%
    19:00 +21°C° 0.2 mm 1 mps 677 mmHg 95%
    20:00 +21°C° 0.2 mm 1 mps 678 mmHg 96%
    21:00 +20°C° 0.2 mm 1 mps 678 mmHg 97%
    22:00 +20°C° 0.1 mm 1 mps 678 mmHg 97%
    23:00 +20°C° 0.1 mm 1 mps 678 mmHg 97%
    Show more